Location: Pl�tzky
(52.0521°N, 11.8020°E)
Time: 08:06:43
(UTC+00:00)

Meteor 2-10 Rocket - Pass Details

Date: 22 November 2019
Orbit: 734 x 884 km, 81.2° (Epoch: 14 December)

Event Time Altitude Azimuth Distance (km) Brightness Sun altitude
Rises 15:50:53 0° 208° (SSW) 3,159 7.7 -5.9°
Reaches altitude 10° 15:53:15 10° 214° (SW) 2,248 7.0 -6.2°
Maximum altitude 15:58:08 49° 289° (WNW) 974 4.5 -6.9°
Drops below altitude 10° 16:03:11 10° 5° (N) 2,327 5.7 -7.6°
Sets 16:05:40 0° 11° (N) 3,281 6.4 -8.0°
